Vertical_Velocity
2 4 -14 -2 -2 10 1 -0 0 -5 10 3 0 3 -1 1 -1 3 3 1 -0 3 1 1 -3 -7 -0 0 0 0 -2 -1 -1 1 -3 -1 -0 -0 -1 2 -1 -0 -1
8 2 23 3 1 -4 10 -0 -1 3 14 8 3 1 -3 -0 -2 1 1 2 2 3 2 -1 3 0 -0 1 -2 -0 -2 1 -1 -3 -1 -2 -3 -1 -2 1 -1 -1 -1
-3 -1 -5 -3 -0 -1 -2 -2 2 -0 -4 5 6 -1 -3 -3 -1 -1 0 3 -2 5 -3 -2 -0 -2 1 -3 -3 -1 -3 1 0 -1 -4 -2 -1 0 -2 -1 -1 -1 -1
1 -5 4 -3 -3 -4 -8 0 -4 -1 -6 5 -0 5 0 3 -0 4 0 3 2 -3 3 -3 -3 -3 -1 -2 1 2 -3 -2 3 1 -2 -1 -1 -0 -2 -0 -1 -2 -1
4 -5 -7 -6 -4 -6 -7 -4 1 -0 -3 11 -2 1 -1 -1 -2 -2 -4 0 4 2 3 -4 0 -3 -3 -2 1 4 -1 -0 3 0 -3 0 0 -2 -1 -1 -1 -0 -1
16 -4 -13 -7 -7 -9 -5 -1 0 -3 -2 -5 -2 -2 -1 1 -0 -0 -1 -1 7 5 -3 -0 0 -1 -0 1 -3 1 0 -2 -1 -3 -2 1 -1 -0 -0 -0 -1 -1 -0
7 3 11 6 6 3 -1 -2 2 -5 0 13 -2 -3 -5 0 -2 -0 -3 -0 2 2 1 1 -2 0 -1 1 2 2 4 1 -1 0 1 0 -2 0 -1 -1 -1 -0 -1
3 32 27 -0 134 10 -4 1 2 -2 12 1 8 2 -0 -4 1 -2 -3 -1 5 -1 -1 -0 -3 -2 -2 1 0 -2 1 0 -1 0 -1 -1 -0 2 1 -0 -0 -2 0
4 -7 15 28 1 2 -8 -4 -1 -4 5 2 -2 2 -4 0 -2 -2 -4 -2 6 4 2 5 -1 -2 -1 -1 3 1 -1 1 3 -3 0 0 1 1 -1 -1 -1 2 1
10 -5 -3 -4 4 -2 -3 -4 -2 1 -2 5 -0 10 8 1 -3 -2 -1 4 4 5 4 2 -1 -1 -2 3 0 1 -2 1 1 2 1 -0 1 1 2 3 2 2 2
-2 10 3 -5 5 -10 -2 -4 1 -6 -3 -1 -0 -4 8 -3 1 -2 -1 5 4 2 0 0 -0 3 -1 1 3 -1 -1 1 2 1 0 -3 -1 -0 1 0 1 -0 -0
-1 4 3 8 2 9 -2 73 -3 -0 -1 -3 15 1 -4 1 -1 -4 -3 5 3 3 3 -1 3 2 -1 0 0 0 0 2 2 1 3 0 0 -1 -0 -2 -2 -0 2
-3 4 5 1 -2 -3 -4 -0 11 11 4 -7 1 14 -5 1 -4 -1 -4 5 2 3 -2 6 6 0 2 1 2 1 0 5 -0 -0 3 3 2 -0 -2 1 1 0 -1
-3 -6 -7 1 -3 10 4 4 5 1 -5 2 10 12 -2 -5 -1 -4 0 -1 5 2 -2 1 5 3 -2 1 4 1 4 1 -0 3 4 1 2 1 1 -1 1 2 1
-1 1 -5 5 3 13 -13 -1 6 -1 4 2 6 -4 -2 -3 -2 -7 3 -4 0 1 -1 1 2 3 2 3 2 5 5 7 6 2 5 3 1 -1 1 1 -0 -1 1
-0 -1 -0 1 -4 6 -9 9 21 10 8 -0 2 -4 4 -6 -2 9 -2 -1 -1 -1 6 3 1 5 1 -0 3 2 1 1 -0 0 -2 2 1 -1 0 -2 -2 0 -1
1 -1 2 -6 -2 -0 5 16 9 10 12 3 0 1 -2 -3 1 -3 2 -0 -3 -3 -0 -0 -1 -2 1 0 0 0 -1 0 9 2 -1 3 1 -1 1 0 -2 -2 -2
-1 1 3 2 0 -1 7 3 5 15 2 8 6 6 2 10 -1 2 -2 1 0 -2 -1 1 0 2 -1 0 0 4 3 2 0 -2 -3 -2 1 2 -1 -2 -4 -2 -0
2 4 2 2 5 -1 -3 2 -4 -5 -5 -8 -0 3 7 4 4 2 1 1 0 -4 1 -2 4 1 2 -3 -1 -1 3 4 4 2 3 -1 -0 -3 -0 0 -3 -2 -1
-2 -0 -3 2 -2 3 1 1 -2 -1 -4 2 2 1 3 12 2 -0 -1 0 -0 -1 2 -1 -1 3 1 -1 -3 -1 -7 2 1 -1 -0 -2 -4 -0 -6 -0 3 1 0
2 -1 0 0 0 -2 2 1 3 7 7 -3 -0 -1 1 0 -1 2 -2 -3 8 5 1 -1 -1 2 1 -3 -1 3 -0 4 0 -4 1 1 -4 -2 -1 1 1 -0 -1
2 2 2 1 -1 -2 -2 -2 7 1 -1 -0 -2 0 0 -1 2 1 1 2 5 0 3 -3 -2 -1 -0 4 -4 4 2 2 -5 -1 -2 -3 -4 -2 -4 -4 -2 -2 -0
5 2 2 -2 2 4 -0 -0 -4 -3 -0 1 -0 -0 4 2 -0 -4 2 2 3 -4 4 1 1 5 -4 3 -3 3 -2 -0 -4 -2 -0 -1 -1 1 -2 -2 -1 -1 -2
-2 -3 1 2 1 1 1 1 4 -0 1 2 3 2 2 -1 5 3 -1 1 -1 -5 3 -0 2 -0 -5 -3 -1 0 -2 3 -1 5 -2 1 0 2 0 3 1 1 -1
-3 2 -2 -3 1 1 -0 1 -0 0 -2 -3 2 -4 -0 2 -0 -0 1 -1 -1 -3 -3 -3 4 2 -2 -4 -0 -0 -3 0 -1 -3 5 3 -3 -2 1 -1 3 1 0
-4 -5 -0 -0 2 2 -2 -1 -1 1 4 -1 2 -0 -2 -2 2 2 2 4 -1 3 3 -1 -3 -2 1 -0 -4 0 3 -2 -1 2 -1 2 6 2 -0 -0 2 0 -2
Height
5778 5780 5781 5783 5789 5794 5797 5798 5803 5807 5810 5812 5817 5816 5818 5824 5827 5830 5834 5837 5840 5839 5838 5840 5842 5841 5843 5843 5843 5842 5843 5843 5842 5842 5843 5842 5842 5842 5840 5841 5840 5839 5839
5775 5775 5773 5778 5785 5785 5791 5792 5797 5802 5808 5808 5811 5814 5820 5819 5824 5827 5830 5834 5836 5836 5837 5839 5840 5840 5842 5840 5841 5842 5842 5841 5841 5840 5840 5840 5840 5839 5838 5838 5838 5837 5836
5769 5769 5772 5774 5779 5778 5782 5787 5791 5798 5801 5804 5809 5813 5816 5818 5822 5825 5828 5831 5833 5834 5835 5837 5837 5839 5840 5839 5841 5840 5841 5839 5839 5838 5837 5838 5837 5837 5836 5835 5835 5835 5834
5762 5763 5765 5766 5772 5773 5778 5781 5786 5791 5795 5799 5802 5809 5811 5816 5820 5824 5826 5828 5831 5833 5834 5834 5835 5836 5837 5838 5837 5838 5836 5836 5835 5836 5836 5835 5834 5834 5833 5833 5833 5832 5832
5754 5755 5757 5761 5765 5770 5773 5777 5781 5786 5790 5795 5797 5804 5807 5813 5816 5821 5824 5826 5828 5830 5829 5830 5831 5832 5833 5833 5833 5834 5834 5833 5833 5833 5833 5832 5831 5831 5830 5830 5831 5831 5830
5744 5748 5751 5755 5760 5765 5771 5776 5779 5783 5786 5792 5794 5798 5802 5808 5814 5817 5820 5821 5824 5825 5825 5825 5826 5828 5828 5828 5829 5830 5830 5830 5830 5830 5830 5829 5829 5827 5828 5829 5829 5829 5829
5733 5741 5743 5745 5751 5758 5767 5771 5775 5777 5781 5789 5793 5793 5799 5803 5809 5814 5816 5819 5822 5823 5821 5822 5822 5824 5825 5826 5826 5826 5826 5828 5828 5828 5828 5827 5827 5826 5826 5827 5828 5828 5827
5727 5733 5735 5734 5737 5751 5759 5764 5771 5773 5778 5784 5788 5790 5794 5800 5805 5809 5813 5817 5818 5817 5820 5819 5818 5820 5821 5822 5822 5822 5822 5824 5824 5825 5825 5824 5824 5825 5825 5824 5825 5825 5824
5722 5729 5734 5732 5738 5745 5751 5756 5763 5767 5772 5779 5783 5787 5792 5797 5801 5806 5810 5812 5813 5814 5816 5816 5815 5817 5818 5818 5819 5818 5819 5819 5820 5821 5821 5821 5821 5822 5823 5822 5822 5822 5821
5722 5724 5729 5736 5737 5740 5744 5748 5754 5760 5766 5772 5777 5782 5787 5792 5797 5800 5804 5806 5810 5812 5812 5812 5812 5813 5814 5813 5815 5816 5814 5815 5816 5817 5817 5817 5817 5817 5818 5818 5819 5818 5819
5722 5722 5726 5730 5732 5734 5737 5741 5746 5752 5759 5764 5770 5776 5781 5787 5792 5796 5799 5802 5806 5809 5808 5809 5808 5809 5810 5811 5811 5811 5811 5811 5813 5814 5814 5814 5815 5816 5816 5817 5817 5818 5817
5721 5721 5722 5724 5725 5728 5730 5736 5739 5746 5753 5761 5767 5771 5776 5783 5788 5791 5794 5799 5802 5803 5804 5802 5803 5805 5805 5805 5807 5807 5808 5808 5809 5811 5812 5811 5812 5814 5813 5814 5814 5814 5814
5721 5719 5717 5718 5717 5719 5722 5727 5733 5740 5747 5752 5763 5769 5772 5777 5783 5787 5791 5795 5797 5797 5798 5798 5799 5799 5800 5801 5802 5803 5804 5805 5806 5807 5808 5809 5809 5809 5809 5809 5810 5810 5809
5718 5717 5713 5712 5709 5707 5710 5713 5725 5735 5742 5751 5759 5764 5767 5774 5778 5782 5787 5790 5791 5792 5792 5792 5793 5794 5794 5795 5795 5795 5797 5799 5799 5801 5804 5804 5804 5804 5804 5805 5805 5805 5804
5714 5713 5711 5709 5703 5698 5697 5704 5721 5730 5739 5748 5756 5761 5766 5770 5775 5778 5782 5784 5785 5787 5788 5788 5787 5789 5788 5788 5789 5792 5795 5796 5797 5798 5800 5801 5801 5801 5801 5801 5800 5800 5799
5710 5710 5708 5706 5702 5698 5696 5703 5716 5726 5737 5746 5754 5760 5763 5766 5770 5773 5778 5779 5780 5780 5783 5782 5784 5783 5785 5784 5785 5788 5791 5792 5793 5794 5796 5797 5797 5797 5796 5795 5793 5792 5792
5708 5708 5707 5705 5704 5702 5701 5707 5717 5725 5735 5745 5752 5756 5758 5762 5765 5770 5773 5774 5775 5776 5777 5776 5777 5779 5779 5779 5782 5785 5787 5788 5790 5790 5792 5792 5793 5792 5791 5790 5788 5788 5787
5707 5706 5706 5705 5706 5708 5706 5712 5718 5727 5736 5743 5749 5752 5755 5757 5760 5764 5768 5769 5769 5770 5771 5772 5774 5774 5774 5776 5778 5780 5782 5784 5785 5786 5787 5787 5786 5786 5785 5784 5782 5782 5781
5704 5704 5705 5707 5707 5711 5714 5718 5723 5731 5736 5740 5744 5746 5750 5755 5757 5759 5761 5764 5765 5766 5766 5767 5768 5771 5772 5773 5775 5777 5778 5779 5780 5780 5780 5780 5780 5780 5779 5778 5777 5775 5773
5702 5704 5705 5707 5709 5711 5715 5719 5724 5728 5733 5737 5740 5742 5748 5750 5753 5756 5757 5758 5759 5760 5759 5761 5763 5765 5767 5769 5771 5773 5774 5775 5775 5775 5775 5775 5774 5773 5773 5771 5769 5766 5764
5701 5702 5704 5708 5710 5712 5714 5718 5721 5726 5730 5732 5736 5739 5742 5745 5749 5751 5752 5753 5753 5753 5753 5755 5760 5762 5764 5765 5767 5767 5770 5770 5770 5770 5771 5770 5768 5767 5765 5763 5762 5760 5757
5701 5702 5703 5705 5708 5711 5713 5715 5719 5721 5723 5726 5732 5735 5737 5741 5743 5745 5745 5746 5747 5747 5750 5754 5755 5757 5759 5761 5763 5764 5765 5766 5764 5764 5764 5763 5761 5759 5758 5755 5753 5751 5748
5703 5703 5705 5706 5708 5709 5712 5714 5716 5718 5720 5723 5726 5729 5735 5737 5737 5738 5740 5741 5743 5746 5750 5752 5753 5755 5755 5757 5757 5759 5760 5760 5759 5759 5758 5755 5753 5752 5749 5746 5743 5741 5738
5706 5705 5706 5706 5707 5708 5709 5711 5713 5716 5717 5721 5724 5727 5728 5729 5730 5735 5736 5739 5743 5746 5749 5749 5749 5751 5751 5752 5752 5753 5753 5754 5753 5752 5750 5747 5745 5743 5740 5736 5733 5732 5729
5709 5708 5708 5708 5708 5708 5709 5711 5714 5715 5718 5720 5721 5722 5722 5726 5729 5732 5737 5739 5741 5743 5744 5745 5746 5747 5746 5747 5746 5746 5747 5746 5745 5743 5741 5740 5736 5733 5730 5726 5724 5722 5719
5707 5708 5708 5711 5711 5711 5712 5714 5715 5719 5720 5720 5720 5723 5724 5726 5729 5733 5734 5736 5737 5737 5737 5739 5740 5740 5741 5741 5741 5740 5739 5738 5735 5733 5730 5727 5725 5722 5719 5717 5714 5711 5709